Hourly Data Report for September 03, 2020

BRIER ISLAND
NOVA SCOTIA
Current Station Operator: ECCC - MSC

44°17'09.000" N
66°20'48.000" W
15.80 m
8200604
71988
WVU

Download Data

Hourly Data (September 2020)
Hourly Data Report for September 3, 2020
TIME Temp Definition
°C
Dew Point Definition
°C
Rel Hum Definition
%
Wind Dir Definition
10's deg

Wind Spd Definition
km/h
Visibility Definition
km
Stn Press Definition
kPa
Hmdx Definition


Wind Chill Definition


Weather Definition


00:00 15.9 15.9 100 16 24   100.96     LegendNANA
01:00 15.7 15.7 100 15 27   100.87     LegendNANA
02:00 16.2 16.2 100 15 23   100.81     LegendNANA
03:00 16.6 LegendMM LegendMM 16 22   100.77     LegendNANA
04:00 16.0 16.0 100 16 26   100.74     LegendNANA
05:00 15.4 15.4 100 15 22   100.75     LegendNANA
06:00 15.3 15.3 100 16 19   100.76     LegendNANA
07:00 15.7 15.7 100 16 22   100.77     LegendNANA
08:00 15.6 15.6 100 16 20   100.79     LegendNANA
09:00 16.7 16.7 100 17 20   100.80     LegendNANA
10:00 17.2 17.2 100 17 16   100.83     LegendNANA
11:00 15.2 15.2 100 15 14   100.81     LegendNANA
12:00 15.3 15.3 100 15 13   100.79     LegendNANA
13:00 15.2 15.2 100 15 13   100.76     LegendNANA
14:00 15.7 15.7 100 15 16   100.71     LegendNANA
15:00 15.4 15.4 100 15 13   100.71     LegendNANA
16:00 14.8 LegendMM LegendMM 15 12   100.68     LegendNANA
17:00 14.9 LegendMM LegendMM 15 19   100.65     LegendNANA
18:00 15.4 15.4 100 16 20   100.63     LegendNANA
19:00 15.7 15.7 100 15 22   100.57     LegendNANA
20:00 16.3 16.3 100 15 22   100.55     LegendNANA
21:00 16.6 16.6 100 15 20   100.51     LegendNANA
22:00 16.7 16.7 100 15 23   100.52     LegendNANA
23:00 16.3 16.3 100 16 23   100.41     LegendNANA

Notes on Data Quality.

Legend

  • E = Estimated
  • M = Missing
  • NA = Not Available*
  • [empty] = Indicates an unobserved value
Date modified: